SL-12 R/B(2), 32396

Orbit data source: Space-Track

SL-12 R/B(2), 32396 is space debris in MEO originally from a launch on Tue, 25 Dec 2007 UTC launched from the Tyuratam Missile And Space Complex (TTMTR). Debris objects in space refer to the collection of defunct objects orbiting the Earth. Examples of debris include non-operational satellites, rocket bodies, and fragments generated from explosions, collisions, or faulty payload assembly.

Loading next visibility...
Identifier
32396, 2007-065D
Orbit
MEO
Country
Flag of CISCIS
Related business
Manufacturer
RKKE
Mission
Spacecraft
Bus & Motor
BLOK DM2, 11D58M
Mass
2,440 kg wet, 2,440 kg dry
Launch date (UTC)
2007-12-25 (18 years ago)
Launch vehicle
Unknown
Launch site
Tyuratam Missile And Space Complex (TTMTR)
Object type
Payload
Rocket body
Debris
Shape & HBR
Cyl, 3.5 m
Radar Cross Section
26.008 m², Large (>1 m²)

Expand to show TLE details & history
Last TLE update: 3 days ago

TLE from 3 days ago
0 SL-12 R/B(2)
1 32396U 07065D   26170.65388535  .00000059  00000-0  00000-0 0  9994
2 32396  64.3247 191.1521 0035961 191.3768 345.9625  2.13392511144033
Epoch: 2026-06-19T15:41Z
TLE epoch observation values (Epoch: 2026-06-19T15:41:35.694Z)
Latitude
2.47611°
Longitude
-133.31412°
Altitude
19,018.108 km
Speed
3.969 km/s
True Right ascension
00h 39m 51s
True Declination
2° 28' 19"
Sunlit
Object was in daylight at epoch
Visualization orbit readout
Latitude
Unknown
Longitude
Unknown
Altitude
Unknown
Speed
Unknown
Apparent Right ascension
Unknown
Apparent Declination
Unknown
Sunlit
N/A
Visualization observer readout
Local Sidereal Time
00:39:47
Azimuth
Unknown
Elevation
Unknown
Doppler factor
Unknown
Orbital elements
Apogee altitude
19,198.014 km
Perigee altitude
19,014.725 km
Semi-major axis
25,484.506 km
Eccentricity
0.0036
Inclination
64.3247°
RAAN
191.1521°
Arg. of periapsis
191.3768°
True anomaly
345.86211°
Mean anomaly
345.9625°
Eccentric anomaly
345.91235°
Mean motion
0.53349 °/min
Orbital period
674.8 mins
BSTAR
0
Loading maneuver chart data...
Computing Atmospheric mass density...
Loading historical data...
Loading historical data...
Loading historical data...
Loading historical data...
Loading historical data...
Loading historical data...
Loading historical data...

Documentation

Showing up to 5 results
|